This demonstration page uses our WeatherBlox Daily Observations layout. Learn more.

Left ArrowRight Arrow

38.88101, -77.10428

Hourly Observations for December 30, 2015

Temp ( °F °C ) Dew Point ( °F °C ) Humidity (%) Winds ( mph kmh ) Pressure ( in mb ) Visibility ( mi km ) Precip ( " mm )
12:08 am 00:08 Mostly Cloudy with Mist and Fog 48 9 48 9 100 100 NE 7 11 30.18 1022 1 2 N/A
12:11 am 00:11 Cloudy with Mist and Fog 49 9.4 49 9.4 100 100 NE 7 11 30.18 1022 2 2 N/A
12:32 am 00:32 Cloudy with Mist and Fog 50 10 48 9 94 94 NNE 8 13 30.18 1022 3 5 N/A
12:52 am 00:52 Cloudy with Mist and Fog 50 10 48 8.9 93 93 ENE 7 11 30.19 1022 4 6 N/A
1:06 am 01:06 Cloudy with Mist and Fog 50 10 48 9 94 94 NE 7 11 30.18 1022 4 6 N/A
1:52 am 01:52 Cloudy with Mist and Fog 49 9.4 48 8.9 97 97 NE 3 6 30.20 1023 4 6 N/A
2:23 am 02:23 Cloudy with Mist and Fog 49 9.4 48 8.9 97 97 NE 6 9 30.21 1023 2 3 N/A
2:52 am 02:52 Cloudy with Mist and Fog 49 9.4 48 8.9 97 97 ENE 6 9 30.22 1023 2 3 N/A
3:21 am 03:21 Cloudy with Mist and Fog 49 9.4 48 8.9 97 97 N N/A 30.24 1024 2 2 N/A
3:37 am 03:37 Cloudy with Fog 49 9.4 48 8.9 97 97 N N/A 30.24 1024 1 1 N/A
3:52 am 03:52 Mostly Cloudy with Fog 49 9.4 49 9.4 100 100 N N/A 30.22 1024 0 0 N/A
4:11 am 04:11 Cloudy with Mist and Fog 49 9.4 49 9.4 100 100 N N/A 30.24 1024 1 2 N/A
4:30 am 04:30 Cloudy with Mist and Fog 50 10 48 9 94 94 N N/A 30.24 1024 3 5 N/A
4:44 am 04:44 Cloudy with Mist and Fog 50 10 48 9 94 94 N N/A 30.24 1024 3 5 N/A
4:52 am 04:52 Cloudy with Mist and Fog 50 10 49 9.4 96 96 N N/A 30.24 1024 3 5 N/A
5:52 am 05:52 Cloudy with Mist and Fog 51 10.6 49 9.4 92 92 E 8 13 30.25 1025 5 8 N/A
6:52 am 06:52 Cloudy with Mist and Fog 51 10.6 49 9.4 92 92 ESE 5 7 30.26 1025 4 6 N/A
7:52 am 07:52 Cloudy with Mist and Fog 50 10 49 9.4 96 96 SE 5 7 30.27 1025 4 6 N/A
7:58 am 07:58 Cloudy with Mist and Fog 50 10 48 9 94 94 SE 5 7 30.27 1025 4 6 N/A
8:16 am 08:16 Cloudy with Mist and Fog 52 11 48 9 88 88 N N/A 30.30 1026 5 8 N/A
8:37 am 08:37 Cloudy with Mist and Fog 51 10.6 50 10 96 96 N N/A 30.30 1026 4 6 N/A
8:52 am 08:52 Cloudy with Mist and Fog 51 10.6 49 9.4 92 92 N N/A 30.28 1025 5 8 N/A
9:52 am 09:52 Cloudy 53 11.7 48 8.9 83 83 SSE 5 7 30.27 1025 10 16 N/A
10:29 am 10:29 Cloudy 53 11.7 49 9.4 86 86 SSE 3 6 30.30 1026 10 16 N/A
10:52 am 10:52 Cloudy 53 11.7 47 8.3 80 80 SE 10 17 30.27 1025 10 16 N/A
11:03 am 11:03 Cloudy 54 12 46 8 77 77 E 8 13 30.27 1025 10 16 N/A
11:48 am 11:48 Cloudy 54 12 48 9 82 82 E 8 13 30.24 1024 10 16 N/A
11:52 am 11:52 Cloudy 54 12.2 48 8.9 80 80 E 7 11 30.23 1024 10 16 N/A
12:18 pm 12:18 Cloudy 54 12 46 8 77 77 E 7 11 30.21 1023 10 16 N/A
12:52 pm 12:52 Cloudy 53 11.7 48 8.9 83 83 ESE 6 9 30.21 1023 10 16 N/A
1:40 pm 13:40 Cloudy with Drizzle 52 11 50 10 94 94 SE 7 11 30.21 1023 3 4 N/A
1:52 pm 13:52 Cloudy with Drizzle 52 11.1 50 10 93 93 ESE 7 11 30.19 1022 2 3 N/A
1:54 pm 13:54 Cloudy with Drizzle 52 11 50 10 94 94 ESE 8 13 30.18 1022 2 3 N/A
1:57 pm 13:57 Cloudy with Drizzle 52 11.1 50 10 93 93 ESE 7 11 30.18 1022 2 2 N/A
2:19 pm 14:19 Cloudy with Drizzle 52 11.1 51 10.6 97 97 ESE 6 9 30.18 1022 2 3 N/A
2:32 pm 14:32 Cloudy with Drizzle 52 11 52 11 100 100 ESE 6 9 30.18 1022 2 3 N/A
2:38 pm 14:38 Cloudy with Drizzle 52 11 52 11 100 100 ESE 5 7 30.18 1022 2 3 N/A
2:52 pm 14:52 Cloudy with Drizzle 52 11.1 51 10.6 97 97 ESE 7 11 30.17 1022 2 2 N/A
2:59 pm 14:59 Cloudy with Drizzle 52 11.1 50 10 93 93 ESE 6 9 30.18 1022 2 3 N/A
3:10 pm 15:10 Cloudy with Drizzle 52 11 50 10 94 94 ESE 8 13 30.15 1021 2 3 N/A
3:21 pm 15:21 Cloudy with Drizzle 52 11.1 50 10 93 93 ENE 5 7 30.15 1021 3 5 N/A
3:23 pm 15:23 Cloudy with Drizzle 52 11.1 51 10.6 97 97 ENE 6 9 30.15 1021 3 4 N/A
3:32 pm 15:32 Cloudy with Drizzle 52 11 50 10 94 94 ENE 6 9 30.15 1021 2 3 N/A
3:40 pm 15:40 Cloudy with Drizzle 52 11 50 10 94 94 E 5 7 30.15 1021 3 5 N/A
3:52 pm 15:52 Cloudy with Drizzle 51 10.6 50 10 96 96 E 5 7 30.17 1022 3 5 N/A
4:01 pm 16:01 Cloudy with Drizzle 51 10.6 50 10 96 96 E 3 6 30.15 1021 3 4 N/A
4:08 pm 16:08 Cloudy with Drizzle 52 11 52 11 100 100 N N/A 30.18 1022 3 4 N/A
4:13 pm 16:13 Cloudy with Drizzle 51 10.6 51 10.6 100 100 ENE 5 7 30.15 1021 2 3 N/A
4:18 pm 16:18 Cloudy with Drizzle 52 11 50 10 94 94 ENE 6 9 30.15 1021 1 2 N/A
4:49 pm 16:49 Cloudy with Drizzle 52 11 50 10 94 94 NE 3 6 30.15 1021 2 3 N/A
4:52 pm 16:52 Cloudy with Drizzle 51 10.6 50 10 96 96 NE 3 6 30.15 1021 2 3 N/A
4:55 pm 16:55 Cloudy with Drizzle 51 10.6 50 10 96 96 NE 5 7 30.15 1021 3 4 N/A
4:57 pm 16:57 Cloudy with Light Rain 51 10.6 50 10 96 96 NE 5 7 30.15 1021 3 4 N/A
5:19 pm 17:19 Cloudy with Heavy Rain 51 10.6 50 10 96 96 E 6 9 30.12 1020 2 2 0.06 1.52
5:26 pm 17:26 Cloudy with Rain 52 11 50 10 94 94 E 6 9 30.12 1020 2 3 N/A
5:32 pm 17:32 Cloudy with Rain 52 11 50 10 94 94 ENE 5 7 30.12 1020 3 5 N/A
5:40 pm 17:40 Cloudy with Light Rain 52 11 50 10 94 94 ENE 6 9 30.12 1020 4 6 N/A
5:49 pm 17:49 Cloudy with Light Rain 52 11 50 10 94 94 ENE 6 9 30.12 1020 5 8 0.13 3.30
5:52 pm 17:52 Cloudy with Light Rain 51 10.6 50 10 96 96 ENE 7 11 30.11 1020 5 8 0.13 3.30
6:06 pm 18:06 Cloudy with Drizzle 52 11 50 10 94 94 ENE 6 9 30.12 1020 6 10 N/A
6:08 pm 18:08 Cloudy with Drizzle 52 11 50 10 94 94 ENE 6 9 30.09 1019 6 10 N/A
6:12 pm 18:12 Cloudy 52 11 50 10 94 94 ENE 6 9 30.09 1019 7 11 N/A
6:30 pm 18:30 Cloudy 52 11 50 10 94 94 NNE 3 6 30.12 1020 9 14 N/A
6:52 pm 18:52 Cloudy 51 10.6 50 10 96 96 N 3 6 30.11 1020 9 14 N/A
7:00 pm 19:00 Cloudy with Drizzle 52 11 50 10 94 94 N N/A 30.12 1020 6 10 N/A
7:05 pm 19:05 Cloudy with Drizzle 51 10.6 50 10 96 96 N N/A 30.12 1020 5 8 N/A
7:49 pm 19:49 Cloudy with Drizzle 52 11 50 10 94 94 ENE 3 6 30.09 1019 3 4 N/A
7:52 pm 19:52 Cloudy with Drizzle 51 10.6 50 10 96 96 NE 3 6 30.10 1019 2 3 N/A
8:17 pm 20:17 Cloudy with Drizzle 51 10.6 50 10 96 96 N N/A 30.09 1019 2 3 N/A
8:41 pm 20:41 Cloudy with Drizzle 51 10.6 51 10.6 100 100 N N/A 30.09 1019 2 3 N/A
8:43 pm 20:43 Cloudy with Light Rain 51 10.6 51 10.6 100 100 N N/A 30.09 1019 2 3 N/A
8:52 pm 20:52 Cloudy with Light Rain 51 10.6 51 10.6 100 100 N N/A 30.09 1019 3 4 0.01 0.25
8:55 pm 20:55 Cloudy with Light Rain 51 10.6 51 10.6 100 100 N N/A 30.09 1019 3 5 0.01 0.25
9:27 pm 21:27 Cloudy with Mist and Fog 51 10.6 51 10.6 100 100 NNE 3 6 30.09 1019 6 10 0.01 0.25
9:29 pm 21:29 Cloudy with Drizzle 51 10.6 51 10.6 100 100 NNE 3 6 30.09 1019 5 8 0.01 0.25
9:41 pm 21:41 Cloudy with Drizzle 51 10.6 50 10 96 96 N 3 6 30.09 1019 3 4 0.01 0.25
9:52 pm 21:52 Cloudy with Drizzle 51 10.6 51 10.6 100 100 N 5 7 30.10 1019 3 4 0.01 0.25
9:57 pm 21:57 Cloudy with Drizzle 52 11.1 51 10.6 97 97 NNW 7 11 30.09 1019 3 5 N/A
10:07 pm 22:07 Cloudy with Drizzle 52 11.1 51 10.6 97 97 N 8 13 30.12 1020 3 4 N/A
10:34 pm 22:34 Cloudy with Drizzle 52 11 52 11 100 100 NNE 3 6 30.09 1019 2 3 N/A
10:52 pm 22:52 Cloudy with Drizzle 52 11.1 51 10.6 97 97 N 5 7 30.09 1019 1 2 N/A
11:10 pm 23:10 Cloudy with Drizzle 52 11 52 11 100 100 N 6 9 30.09 1019 2 3 N/A
11:34 pm 23:34 Cloudy 52 11 52 11 100 100 NNW 6 9 30.09 1019 7 11 N/A
11:42 pm 23:42 Cloudy 52 11 52 11 100 100 NNW 8 13 30.09 1019 8 13 N/A
11:52 pm 23:52 Cloudy 52 11.1 51 10.6 97 97 NNW 6 9 30.09 1019 9 14 N/A

Powered by AerisWeather